sat.trackr.live / text

‹ back to catalog

ONEWEB-0375

NORAD 49301 · 2021-090Y

PAYLOAD ACTIVE UNKNOWN

§ Identity

Operator
Country
UK
Launch date
2021-10-14
Launch site
VOSTO
Launch vehicle
Mass (kg)
RCS (m²)

Purposes: comms

External: N2YO · Heavens-Above · Gunter

§ Orbital elements

Epoch: 2026-09-19T17:17:09.243168Z

Period
109.03 min
Inclination
87.9142°
Eccentricity
0.0002377
Mean motion
13.20773582 rev/d
Perigee alt
1,180.0 km
Apogee alt
1,183.6 km
Semi-major
7,559.9 km
B*
2.4693e-4
RAAN
255.5748°
Arg perigee
98.1964°
Mean anomaly
261.9439°
Rev number
24,300

§ Raw data

ONEWEB-03751 49301U 21090Y   26262.72024587  .00000113  00000+0  24693-3 0  99932 49301  87.9142 255.5748 0002377  98.1964 261.9439 13.20773582243003

JSON: /api/v1/satellites/49301 · /tle

For live sub-satellite position, see the globe view (requires WebGL).

§ Visibility from observer

Set your observer location to see the next 7 days of passes ≥ 10°. The values pass through the URL so the page stays shareable.

No JS? Fill the form by hand. The geolocation button needs JavaScript.